Location: Clarion
(42.7316°N, 93.7330°W)
Time: 09:53:02
(UTC+00:00)

Cosmos 407 Rocket - Pass Details

Date: 22 April 2026
Orbit: 740 x 781 km, 74.0° (Epoch: 16 May)

Event Time Altitude Azimuth Distance (km) Brightness Sun altitude
Rises 04:41:59 0° 336° (NNW) 3,194 7.9 -31.2°
Reaches altitude 10° 04:44:22 10° 334° (NNW) 2,262 6.8 -31.4°
Enters shadow 04:47:59 44° 313° (NW) 1,023 4.4 -31.7°
